Hourly Data Report for October 25, 2016

All times are specified in Local Standard Time (LST). Add 1 hour to adjust for Daylight Saving Time where and when it is observed.

OTTAWA INTL A
ONTARIO

45°19'00.000" N
75°40'00.000" W
114.90 m
6106001
71628
YOW

Download Data

Hourly Data (October 2016)
Hourly Data Report for October 25, 2016
Temp Definition
°C
Dew Point Temp Definition
°C
Rel Hum Definition
%
Wind Dir Definition
10's deg

Wind Spd Definition
km/h
Visibility Definition
km
Stn Press Definition
kPa
Hmdx Definition


Wind Chill Definition


Weather Definition


TIME
00:00 Legend Double Dagger 1.6 -4.3 65 30 22 24.1 100.53     LegendNANA
01:00 Legend Double Dagger 1.1 -4.0 69 29 22 24.1 100.55     Clear
02:00 Legend Double Dagger 0.9 -4.2 69 29 21 24.1 100.57     LegendNANA
03:00 Legend Double Dagger 0.3 -4.4 71 29 16 24.1 100.60     LegendNANA
04:00 Legend Double Dagger 0.9 -4.0 70 29 15 24.1 100.64     Mainly Clear
05:00 Legend Double Dagger 0.0 -4.5 72 28 16 24.1 100.69   -5 LegendNANA
06:00 Legend Double Dagger 0.2 -4.1 73 29 17 24.1 100.74     LegendNANA
07:00 Legend Double Dagger 1.3 -4.0 68 29 22 24.1 100.84     Mostly Cloudy
08:00 Legend Double Dagger 1.8 -3.9 66 30 21 24.1 100.87     LegendNANA
09:00 Legend Double Dagger 2.8 -3.8 62 31 27 24.1 100.89     LegendNANA
10:00 Legend Double Dagger 3.5 -3.8 59 30 33 24.1 100.90     Mostly Cloudy
11:00 Legend Double Dagger 4.2 -4.1 55 32 32 24.1 100.93     LegendNANA
12:00 Legend Double Dagger 5.4 -3.7 52 30 28 24.1 100.92     LegendNANA
13:00 Legend Double Dagger 5.5 -2.8 55 29 27 24.1 100.93     Mostly Cloudy
14:00 Legend Double Dagger 5.6 -3.2 53 29 29 24.1 100.95     LegendNANA
15:00 Legend Double Dagger 5.2 -2.2 59 30 26 24.1 101.01     LegendNANA
16:00 Legend Double Dagger 5.0 -1.9 61 29 18 24.1 101.05     Mostly Cloudy
17:00 Legend Double Dagger 4.5 -2.6 60 32 17 24.1 101.12     Ice Pellet Showers
18:00 Legend Double Dagger 2.7 -3.4 64 30 17 24.1 101.20     LegendNANA
19:00 Legend Double Dagger 3.4 -2.6 65 30 18 24.1 101.26     Mostly Cloudy
20:00 Legend Double Dagger 1.8 -3.1 70 30 14 24.1 101.33     LegendNANA
21:00 Legend Double Dagger -0.1 -3.7 77 30 14 24.1 101.36   -4 LegendNANA
22:00 Legend Double Dagger 0.2 -3.5 76 30 14 24.1 101.40     Clear
23:00 Legend Double Dagger -0.1 -3.0 81 30 17 24.1 101.42   -5 LegendNANA

Notes on Data Quality.

Legend

  • E = Estimated
  • M = Missing
  • NA = Not Available
  • ‡ = Partner data that is not subject to review by the National Climate Archives
Date modified: